period_start,C,m1,H,J0,J1,J2,J3,J4,J5,JA,JB,JC,JD,JJ,JK,JN,#
2017-10-28 00:01:41,0.03,0.57,0.00,19.32,23.17,26.44,14.00,45.77,1007.35,2045.99,3340.52,2947.26,3371.02,600.38,598.56,11.51,0000 0000 0000 0000 000000
2017-10-28 00:06:43,0.00,0.57,0.00,19.30,23.15,26.41,13.97,45.63,1007.38,2045.99,3339.97,2947.01,3370.91,600.10,598.19,11.56,0000 0000 0000 0000 000000
2017-10-28 00:11:44,0.02,0.58,0.00,19.30,23.13,26.40,13.98,45.52,1007.62,2046.00,3339.26,2947.00,3370.23,600.05,598.31,11.61,0000 0000 0000 0000 000000
2017-10-28 00:16:45,0.00,0.58,0.00,19.33,23.11,26.38,14.00,45.58,1007.82,2046.01,3338.90,2946.99,3369.99,600.01,598.29,11.66,0000 0000 0000 0000 000000
2017-10-28 00:21:47,0.02,0.58,0.00,19.32,23.09,26.35,14.04,45.45,1007.83,2046.03,3338.09,2946.87,3369.70,600.12,598.44,11.71,0000 0000 0000 0000 000000
2017-10-28 00:26:48,0.04,0.58,0.00,19.39,23.07,26.34,14.06,45.52,1007.83,2046.03,3337.62,2946.32,3369.05,600.33,598.50,11.76,0000 0000 0000 0000 000000
2017-10-28 00:31:49,0.00,0.58,0.00,19.33,23.06,26.32,13.99,45.48,1007.83,2046.03,3337.02,2946.02,3368.94,599.94,598.21,11.81,0000 0000 0000 0000 000000
2017-10-28 00:36:50,0.02,0.58,0.00,19.35,23.04,26.34,13.97,45.42,1007.89,2046.05,3336.59,2946.00,3368.18,599.88,598.03,11.86,0000 0000 0000 0000 000000
2017-10-28 00:41:52,0.01,0.58,0.00,19.34,23.03,26.30,14.04,45.54,1008.24,2046.14,3336.01,2945.99,3368.00,600.05,598.61,11.91,0000 0000 0000 0000 000000
2017-10-28 00:46:53,0.03,0.58,0.00,19.35,23.02,26.30,14.13,45.59,1008.31,2046.25,3335.43,2945.95,3367.90,600.04,598.69,11.96,0000 0000 0000 0000 000000
2017-10-28 00:51:54,0.04,0.58,0.00,19.37,23.01,26.29,13.96,45.72,1008.17,2046.33,3334.99,2945.41,3367.10,599.99,598.38,12.01,0000 0000 0000 0000 000000
2017-10-28 00:56:56,0.05,0.59,0.00,19.35,22.99,26.27,13.99,45.73,1007.88,2046.70,3334.38,2945.10,3367.00,599.75,597.99,12.06,0000 0000 0000 0000 000000
2017-10-28 01:01:57,0.02,0.59,0.00,19.36,22.99,26.25,13.99,45.59,1007.92,2046.96,3333.98,2945.03,3366.89,600.04,598.33,12.11,0000 0000 0000 0000 000000
2017-10-28 01:06:58,0.02,0.59,0.00,19.37,22.97,26.28,13.96,45.57,1008.12,2046.97,3333.25,2945.00,3366.15,599.86,598.25,12.16,0000 0000 0000 0000 000000
2017-10-28 01:11:59,-0.00,0.59,0.00,19.33,22.97,26.27,14.04,45.81,1008.30,2046.98,3332.97,2944.99,3366.00,599.78,598.35,12.21,0000 0000 0000 0000 000000
2017-10-28 01:17:01,0.02,0.59,0.00,19.32,22.95,26.27,14.02,45.70,1008.31,2046.97,3332.22,2944.98,3365.81,599.92,598.64,12.26,0000 0000 0000 0000 000000
2017-10-28 01:22:02,0.01,0.59,0.00,19.33,22.94,26.28,14.01,45.68,1008.27,2046.98,3332.00,2944.92,3365.20,600.07,598.63,12.31,0000 0000 0000 0000 000000
2017-10-28 01:27:03,0.02,0.59,0.00,19.32,22.94,26.26,14.03,45.88,1008.13,2046.99,3331.36,2944.56,3365.01,600.11,598.53,12.36,0000 0000 0000 0000 000000
2017-10-28 01:32:04,0.01,0.59,0.00,19.30,22.92,26.27,14.01,45.70,1008.28,2046.99,3331.00,2944.13,3364.93,600.10,598.67,12.41,0000 0000 0000 0000 000000
2017-10-28 01:37:06,0.02,0.60,0.00,19.27,22.91,26.25,14.05,45.63,1008.31,2046.99,3330.61,2944.02,3364.27,599.97,598.62,12.47,0000 0000 0000 0000 000000
2017-10-28 01:42:07,0.00,0.60,0.00,19.25,22.89,26.24,14.04,45.65,1008.33,2046.99,3330.02,2944.00,3364.02,599.84,598.64,12.52,0000 0000 0000 0000 000000
2017-10-28 01:47:09,0.00,0.60,0.00,19.19,22.89,26.25,13.98,45.58,1008.34,2046.99,3329.70,2944.00,3364.00,599.66,598.52,12.57,0000 0000 0000 0000 000000
2017-10-28 01:52:10,0.00,0.60,0.00,19.20,22.87,26.21,14.00,45.60,1008.40,2046.99,3329.08,2944.00,3363.93,599.89,598.92,12.62,0000 0000 0000 0000 000000
2017-10-28 01:57:12,0.01,0.60,0.00,19.22,22.86,26.18,13.99,45.53,1008.50,2046.99,3328.95,2944.00,3363.24,599.92,598.88,12.67,0000 0000 0000 0000 000000
2017-10-28 02:02:13,0.01,0.60,0.00,19.18,22.84,26.16,14.00,45.71,1008.46,2046.99,3328.17,2943.99,3363.00,599.81,598.79,12.72,0000 0000 0000 0000 000000
2017-10-28 02:07:14,0.00,0.60,0.00,19.21,22.84,26.17,14.11,45.77,1008.49,2046.99,3328.00,2943.98,3362.99,600.15,598.99,12.77,0000 0000 0000 0000 000000
2017-10-28 02:12:16,0.02,0.60,0.00,19.19,22.82,26.16,14.07,45.67,1008.58,2046.99,3327.55,2943.98,3362.60,599.83,598.73,12.82,0000 0000 0000 0000 000000
2017-10-28 02:17:17,0.01,0.60,0.00,19.21,22.82,26.15,14.02,45.73,1008.65,2046.99,3327.02,2943.87,3362.06,600.18,599.22,12.87,0000 0000 0000 0000 000000
2017-10-28 02:22:18,0.00,0.60,0.00,19.20,22.80,26.11,14.07,45.73,1008.78,2046.99,3326.96,2943.75,3362.00,600.31,599.43,12.92,0000 0000 0000 0000 000000
2017-10-28 02:27:19,0.02,0.60,0.00,19.23,22.79,26.14,14.03,45.62,1008.80,2046.99,3326.22,2943.30,3361.97,600.08,599.24,12.97,0000 0000 0000 0000 000000
2017-10-28 02:32:20,0.01,0.60,0.00,19.26,22.79,26.11,14.04,45.91,1008.80,2046.99,3326.00,2943.10,3361.59,599.98,599.02,13.02,0000 0000 0000 0000 000000
2017-10-28 02:37:21,0.02,0.60,0.00,19.21,22.78,26.08,14.00,45.73,1008.85,2046.99,3325.51,2943.03,3361.07,599.81,598.95,13.07,0000 0000 0000 0000 000000
2017-10-28 02:42:22,0.00,0.60,0.00,19.21,22.77,26.09,14.04,45.52,1008.92,2046.99,3325.01,2943.01,3360.99,599.97,599.16,13.12,0000 0000 0000 0000 000000
2017-10-28 02:47:23,0.00,0.60,0.00,19.23,22.77,26.07,13.99,45.70,1008.92,2046.99,3324.81,2943.00,3360.93,599.78,599.16,13.17,0000 0000 0000 0000 000000
2017-10-28 02:52:25,0.02,0.61,0.00,19.26,22.77,26.07,14.03,45.78,1008.92,2046.99,3324.09,2943.00,3360.29,600.03,599.12,13.22,0000 0000 0000 0000 000000
2017-10-28 02:57:26,0.00,0.61,0.00,19.22,22.76,26.10,14.02,45.95,1008.82,2046.99,3323.93,2942.98,3360.00,599.59,598.69,13.27,0000 0000 0000 0000 000000
2017-10-28 03:02:27,0.01,0.61,0.00,19.23,22.75,26.08,14.08,45.84,1009.07,2047.00,3323.19,2942.94,3359.96,600.29,599.50,13.32,0000 0000 0000 0000 000000
2017-10-28 03:07:28,0.02,0.61,0.00,19.23,22.74,26.08,14.02,45.75,1009.29,2047.00,3322.95,2942.61,3359.35,600.07,599.45,13.37,0000 0000 0000 0000 000000
2017-10-28 03:12:29,0.03,0.61,0.00,19.24,22.74,26.06,14.07,45.73,1009.30,2047.00,3322.25,2942.23,3359.03,600.05,599.35,13.42,0000 0000 0000 0000 000000
2017-10-28 03:17:30,0.00,0.61,0.00,19.21,22.74,26.04,14.02,45.71,1009.32,2047.00,3321.99,2942.07,3358.98,600.13,599.60,13.47,0000 0000 0000 0000 000000
2017-10-28 03:22:32,0.02,0.61,0.00,19.24,22.74,26.05,13.98,45.47,1009.60,2047.00,3321.38,2942.01,3358.52,599.50,599.03,13.52,0000 0000 0000 0000 000000
2017-10-28 03:27:33,0.00,0.61,0.00,19.21,22.72,26.07,14.04,45.67,1009.78,2047.00,3321.00,2942.00,3358.05,599.62,599.30,13.57,0000 0000 0000 0000 000000
2017-10-28 03:32:34,0.01,0.61,0.00,19.24,22.72,26.06,14.04,45.75,1009.78,2047.00,3320.61,2942.00,3358.00,600.03,599.87,13.62,0000 0000 0000 0000 000000
2017-10-28 03:37:36,0.01,0.61,0.00,19.22,22.72,26.04,14.01,45.55,1009.77,2047.01,3320.02,2941.98,3357.85,599.92,599.66,13.67,0000 0000 0000 0000 000000
2017-10-28 03:42:37,0.02,0.61,0.00,19.23,22.72,26.05,13.96,45.48,1009.73,2047.00,3319.85,2941.83,3357.11,599.60,599.24,13.72,0000 0000 0000 0000 000000
2017-10-28 03:47:38,0.03,0.62,0.00,19.23,22.72,26.01,14.03,45.77,1009.51,2047.00,3319.10,2941.18,3356.99,600.07,599.56,13.77,0000 0000 0000 0000 000000
2017-10-28 03:52:40,0.01,0.62,0.00,19.25,22.72,26.04,14.02,45.69,1009.76,2047.00,3318.73,2941.01,3356.63,600.22,599.97,13.82,0000 0000 0000 0000 000000
2017-10-28 03:57:41,0.01,0.62,0.00,19.26,22.72,26.04,14.01,45.66,1009.78,2047.00,3318.04,2941.00,3356.04,600.16,599.61,13.87,0000 0000 0000 0000 000000
2017-10-28 04:02:42,0.01,0.62,0.00,19.29,22.72,26.04,14.06,45.65,1009.78,2047.00,3317.71,2940.96,3355.98,600.17,599.72,13.92,0000 0000 0000 0000 000000
2017-10-28 04:07:44,0.03,0.62,0.00,19.28,22.72,26.01,14.01,45.78,1009.78,2047.00,3317.05,2940.58,3355.48,599.84,599.56,13.97,0000 0000 0000 0000 000000
2017-10-28 04:12:45,0.02,0.62,0.00,19.30,22.73,25.99,13.98,45.77,1009.78,2047.00,3316.70,2940.04,3355.01,599.80,599.32,14.02,0000 0000 0000 0000 000000
2017-10-28 04:17:46,0.01,0.62,0.00,19.30,22.74,26.06,14.03,45.77,1009.78,2047.00,3316.03,2940.00,3354.90,599.89,599.48,14.07,0000 0000 0000 0000 000000
2017-10-28 04:22:47,0.02,0.62,0.00,19.28,22.74,26.04,14.14,45.79,1009.80,2047.00,3315.72,2939.98,3354.19,600.54,600.20,14.12,0000 0000 0000 0000 000000
2017-10-28 04:27:48,0.01,0.62,0.00,19.25,22.74,26.04,14.07,45.82,1010.01,2047.00,3315.03,2939.94,3354.00,600.11,599.86,14.17,0000 0000 0000 0000 000000
2017-10-28 04:32:50,0.02,0.62,0.00,19.24,22.74,26.05,14.05,45.73,1010.22,2047.00,3314.75,2939.41,3353.87,600.24,600.08,14.22,0000 0000 0000 0000 000000
2017-10-28 04:37:51,0.02,0.63,0.00,19.24,22.73,26.04,14.05,45.73,1010.27,2047.00,3314.04,2939.03,3353.16,599.89,599.73,14.27,0000 0000 0000 0000 000000
2017-10-28 04:42:52,0.00,0.63,0.00,19.21,22.72,26.06,14.05,45.73,1010.27,2047.00,3313.86,2939.01,3353.01,599.89,599.80,14.32,0000 0000 0000 0000 000000
2017-10-28 04:47:53,0.01,0.63,0.00,19.21,22.72,26.05,14.07,45.63,1010.27,2047.00,3313.11,2939.00,3352.94,599.73,599.73,14.37,0000 0000 0000 0000 000000
2017-10-28 04:52:55,0.01,0.63,0.00,19.23,22.72,26.04,14.00,45.63,1010.27,2047.00,3312.93,2938.97,3352.32,600.08,599.99,14.42,0000 0000 0000 0000 000000
2017-10-28 04:57:56,0.03,0.63,0.00,19.19,22.72,26.03,14.09,45.71,1010.27,2047.00,3312.21,2938.63,3352.01,599.76,599.98,14.47,0000 0000 0000 0000 000000
2017-10-28 05:02:58,0.01,0.63,0.00,19.19,22.72,26.01,13.98,45.73,1010.27,2047.00,3311.97,2938.05,3351.94,599.53,599.51,14.52,0000 0000 0000 0000 000000
2017-10-28 05:07:59,0.02,0.63,0.00,19.17,22.71,26.03,14.01,45.82,1010.27,2047.00,3311.23,2938.01,3351.29,599.89,599.98,14.57,0000 0000 0000 0000 000000
2017-10-28 05:13:00,0.00,0.63,0.00,19.16,22.70,25.98,14.01,45.77,1010.27,2047.00,3310.88,2937.99,3351.00,599.82,599.86,14.62,0000 0000 0000 0000 000000
2017-10-28 05:18:01,0.02,0.63,0.00,19.12,22.69,26.03,14.03,45.77,1010.27,2047.00,3310.10,2937.81,3350.85,599.67,599.91,14.67,0000 0000 0000 0000 000000
2017-10-28 05:23:03,0.02,0.63,0.00,19.13,22.69,26.01,14.08,45.88,1010.36,2047.00,3309.96,2937.31,3350.14,600.05,600.30,14.72,0000 0000 0000 0000 000000
2017-10-28 05:28:04,0.02,0.63,0.00,19.14,22.69,26.00,13.96,45.75,1010.49,2047.00,3309.22,2937.04,3350.00,599.58,599.87,14.77,0000 0000 0000 0000 000000
2017-10-28 05:33:05,0.00,0.64,0.00,19.13,22.67,26.04,14.03,45.90,1010.65,2047.01,3308.97,2937.00,3349.95,600.33,600.67,14.82,0000 0000 0000 0000 000000
2017-10-28 05:38:07,0.02,0.64,0.00,19.09,22.67,25.99,14.07,45.93,1010.75,2047.01,3308.27,2936.99,3349.32,600.08,600.60,14.87,0000 0000 0000 0000 000000
2017-10-28 05:43:08,0.00,0.64,0.00,19.07,22.67,25.99,14.12,45.96,1010.73,2047.01,3308.00,2936.98,3349.01,600.56,601.19,14.93,0000 0000 0000 0000 000000
2017-10-28 05:48:09,0.02,0.64,0.00,19.08,22.65,25.98,14.00,45.92,1010.76,2047.01,3307.51,2936.75,3348.98,599.53,600.16,14.98,0000 0000 0000 0000 000000
2017-10-28 05:53:10,0.02,0.64,0.00,19.04,22.64,25.94,14.09,45.83,1010.76,2047.03,3307.01,2936.21,3348.67,600.55,600.99,15.03,0000 0000 0000 0000 000000
2017-10-28 05:58:11,0.02,0.64,0.00,19.06,22.63,25.99,14.04,45.91,1010.76,2047.07,3306.75,2936.03,3348.06,599.97,600.57,15.08,0000 0000 0000 0000 000000
2017-10-28 06:03:13,0.00,0.64,0.00,19.06,22.62,25.97,14.11,45.77,1010.95,2047.03,3306.03,2936.00,3347.99,600.27,600.98,15.13,0000 0000 0000 0000 000000
2017-10-28 06:08:14,0.01,0.64,0.00,19.02,22.62,25.96,14.01,45.73,1010.90,2047.11,3305.91,2936.00,3347.95,600.20,601.00,15.18,0000 0000 0000 0000 000000
2017-10-28 06:13:15,0.02,0.64,0.00,19.00,22.60,25.98,14.14,45.79,1011.24,2047.14,3305.18,2936.00,3347.34,600.35,601.34,15.23,0000 0000 0000 0000 000000
2017-10-28 06:18:16,0.02,0.64,0.00,19.00,22.59,25.94,14.06,45.80,1011.24,2047.31,3304.98,2935.98,3347.03,600.35,601.35,15.28,0000 0000 0000 0000 000000
2017-10-28 06:23:18,0.02,0.64,0.00,19.00,22.58,25.92,14.13,45.80,1011.21,2047.29,3304.43,2935.69,3346.97,600.31,601.30,15.33,0000 0000 0000 0000 000000
2017-10-28 06:28:19,0.02,0.65,0.00,18.95,22.57,25.90,14.07,46.03,1010.92,2047.21,3304.00,2935.08,3346.41,599.89,600.88,15.38,0000 0000 0000 0000 000000
2017-10-28 06:33:20,0.02,0.65,0.00,18.95,22.55,25.88,14.05,45.93,1010.82,2047.34,3303.74,2935.02,3346.01,600.02,600.87,15.43,0000 0000 0000 0000 000000
2017-10-28 06:38:21,0.01,0.65,0.00,18.95,22.54,25.90,14.12,46.03,1011.16,2047.40,3303.05,2934.99,3346.00,600.27,601.34,15.48,0000 0000 0000 0000 000000
2017-10-28 06:43:22,0.01,0.65,0.00,18.89,22.53,25.88,14.07,45.99,1011.24,2047.47,3302.89,2934.98,3345.85,599.87,601.11,15.53,0000 0000 0000 0000 000000
2017-10-28 06:48:24,0.04,0.65,0.00,18.89,22.52,25.87,14.13,46.02,1011.24,2047.72,3302.18,2934.98,3345.29,599.88,601.05,15.58,0000 0000 0000 0000 000000
2017-10-28 06:53:25,0.02,0.65,0.00,18.89,22.50,25.86,14.06,45.88,1011.23,2047.92,3301.99,2934.98,3345.03,599.64,600.89,15.63,0000 0000 0000 0000 000000
2017-10-28 06:58:26,0.00,0.65,0.00,18.86,22.49,25.80,14.12,45.98,1011.22,2047.97,3301.89,2934.94,3345.00,600.13,601.32,15.68,0000 0000 0000 0000 000000
2017-10-28 07:03:28,0.02,0.65,0.00,18.82,22.47,25.81,14.09,46.13,1010.86,2047.97,3301.12,2934.60,3344.99,600.22,601.40,15.73,0000 0000 0000 0000 000000
2017-10-28 07:08:29,0.02,0.65,0.00,18.83,22.45,25.77,14.13,46.02,1010.77,2047.98,3300.98,2934.22,3344.68,600.01,601.16,15.78,0000 0000 0000 0000 000000
2017-10-28 07:13:30,0.02,0.66,0.00,18.81,22.44,25.78,14.05,46.20,1010.82,2047.98,3300.45,2934.02,3344.07,599.64,600.82,15.83,0000 0000 0000 0000 000000
2017-10-28 07:18:32,0.00,0.66,0.00,18.76,22.42,25.79,14.10,46.06,1010.84,2047.99,3300.02,2934.02,3344.01,600.04,601.26,15.88,0000 0000 0000 0000 000000
2017-10-28 07:23:33,0.00,0.66,0.00,18.72,22.40,25.76,14.08,46.01,1010.99,2047.99,3299.97,2934.00,3344.00,599.94,601.37,15.93,0000 0000 0000 0000 000000
2017-10-28 07:28:34,0.01,0.66,0.00,18.72,22.38,25.72,14.14,46.02,1011.24,2048.00,3299.63,2934.00,3343.97,599.96,601.60,15.98,0000 0000 0000 0000 000000
2017-10-28 07:33:35,0.01,0.66,0.00,18.65,22.36,25.69,14.09,46.08,1011.24,2048.01,3299.06,2934.00,3343.71,600.18,601.83,16.03,0000 0000 0000 0000 000000
2017-10-28 07:38:37,0.01,0.66,0.00,18.67,22.33,25.67,14.17,46.03,1011.23,2048.02,3298.99,2934.00,3343.18,600.37,602.10,16.08,0000 0000 0000 0000 000000
2017-10-28 07:43:38,0.01,0.66,0.00,18.61,22.32,25.62,14.06,46.00,1011.24,2048.03,3298.60,2933.99,3343.02,600.06,601.90,16.13,0000 0000 0000 0000 000000
2017-10-28 07:48:39,0.01,0.66,0.00,18.64,22.29,25.61,14.09,46.02,1011.24,2048.08,3298.06,2933.97,3343.00,600.19,601.89,16.18,0000 0000 0000 0000 000000
2017-10-28 07:53:41,0.01,0.66,0.00,18.62,22.27,25.57,14.11,46.22,1011.25,2048.17,3297.97,2933.95,3342.98,599.54,601.28,16.23,0000 0000 0000 0000 000000
2017-10-28 07:58:42,0.03,0.66,0.00,18.57,22.25,25.59,14.04,46.13,1011.25,2048.45,3297.57,2933.94,3342.93,599.78,601.68,16.28,0000 0000 0000 0000 000000
2017-10-28 08:03:43,0.04,0.66,0.00,18.55,22.23,25.57,14.03,46.11,1011.25,2048.76,3297.02,2933.87,3342.59,599.99,601.91,16.33,0000 0000 0000 0000 000000
2017-10-28 08:08:44,0.02,0.66,0.00,18.50,22.21,25.53,14.11,46.14,1011.25,2048.96,3296.99,2933.74,3342.18,599.98,601.99,16.38,0000 0000 0000 0000 000000
2017-10-28 08:13:46,0.01,0.67,0.00,18.45,22.18,25.49,14.13,46.25,1011.25,2048.97,3296.68,2933.48,3342.02,599.76,601.97,16.43,0000 0000 0000 0000 000000
2017-10-28 08:18:47,0.02,0.67,0.00,18.44,22.16,25.49,14.12,46.22,1011.25,2048.99,3296.04,2933.24,3342.00,600.21,602.33,16.48,0000 0000 0000 0000 000000
2017-10-28 08:23:48,0.00,0.67,0.00,18.35,22.13,25.48,14.15,46.31,1011.25,2048.99,3295.99,2933.06,3342.00,600.18,602.50,16.53,0000 0000 0000 0000 000000
2017-10-28 08:28:50,0.01,0.67,0.00,18.32,22.10,25.45,14.12,46.27,1011.25,2048.99,3295.53,2933.02,3341.93,599.77,602.32,16.58,0000 0000 0000 0000 000000
2017-10-28 08:33:51,0.01,0.67,0.00,18.31,22.08,25.44,14.10,46.27,1011.28,2049.01,3295.05,2933.01,3341.38,600.01,602.38,16.63,0000 0000 0000 0000 000000
2017-10-28 08:38:52,0.00,0.67,0.00,18.24,22.05,25.40,14.11,46.33,1011.44,2049.02,3294.97,2933.00,3341.03,599.78,602.46,16.68,0000 0000 0000 0000 000000
2017-10-28 08:43:53,0.01,0.67,0.00,18.20,22.02,25.36,14.07,46.29,1011.64,2049.04,3294.63,2933.00,3341.00,599.85,602.79,16.73,0000 0000 0000 0000 000000
2017-10-28 08:48:54,0.02,0.67,0.00,18.19,21.99,25.36,14.10,46.14,1011.72,2049.18,3294.03,2933.00,3341.00,600.28,603.26,16.78,0000 0000 0000 0000 000000
2017-10-28 08:53:55,0.05,0.67,0.00,18.14,21.96,25.29,14.09,46.28,1011.73,2049.68,3294.00,2933.00,3340.98,599.87,603.03,16.83,0000 0000 0000 0000 000000
2017-10-28 08:58:57,0.01,0.67,0.00,18.08,21.93,25.27,14.05,46.15,1011.73,2049.93,3293.95,2933.00,3340.97,599.99,603.18,16.88,0000 0000 0000 0000 000000
2017-10-28 09:03:58,0.01,0.67,0.00,18.06,21.89,25.23,14.06,46.08,1011.73,2049.98,3293.47,2933.00,3340.93,599.78,602.95,16.93,0000 0000 0000 0000 000000
2017-10-28 09:08:59,0.00,0.67,0.00,18.02,21.86,25.20,14.17,46.29,1011.75,2049.99,3293.07,2933.00,3340.90,600.09,603.41,16.98,0000 0000 0000 0000 000000
2017-10-28 09:14:00,0.01,0.68,0.00,17.96,21.83,25.15,14.12,46.23,1011.98,2049.99,3293.00,2933.00,3340.44,600.23,603.98,17.03,0000 0000 0000 0000 000000
2017-10-28 09:19:02,0.01,0.68,0.00,17.97,21.79,25.11,14.19,46.06,1012.21,2050.01,3292.99,2933.00,3340.23,600.09,603.78,17.08,0000 0000 0000 0000 000000
2017-10-28 09:24:03,0.01,0.68,0.00,17.91,21.77,25.07,14.08,45.91,1012.22,2050.04,3292.50,2933.00,3340.03,599.66,603.50,17.13,0000 0000 0000 0000 000000
2017-10-28 09:29:04,0.03,0.68,0.00,17.90,21.73,25.07,14.19,46.00,1012.22,2050.26,3292.04,2933.00,3340.01,600.38,604.15,17.18,0000 0000 0000 0000 000000
2017-10-28 09:34:05,0.05,0.68,0.00,17.87,21.71,25.01,14.23,46.12,1012.22,2050.80,3292.00,2933.00,3340.01,600.16,604.09,17.23,0000 0000 0000 0000 000000
2017-10-28 09:39:06,0.01,0.68,0.00,17.85,21.68,24.97,14.16,46.09,1012.22,2050.97,3291.98,2933.00,3340.00,599.91,603.92,17.28,0000 0000 0000 0000 000000
2017-10-28 09:44:08,0.00,0.68,0.00,17.88,21.65,24.98,14.18,46.05,1012.22,2050.98,3291.82,2933.01,3340.00,599.98,603.94,17.33,0000 0000 0000 0000 000000
2017-10-28 09:49:09,0.01,0.68,0.00,17.81,21.62,24.94,14.15,46.07,1012.22,2050.99,3291.08,2933.00,3339.98,599.92,604.01,17.38,0000 0000 0000 0000 000000
2017-10-28 09:54:10,0.00,0.68,0.00,17.82,21.59,24.89,14.19,46.15,1012.22,2051.00,3291.00,2933.00,3339.97,600.05,604.07,17.43,0000 0000 0000 0000 000000
2017-10-28 09:59:11,0.00,0.68,0.00,17.79,21.57,24.88,14.18,46.08,1012.23,2051.02,3290.95,2933.01,3339.93,600.24,604.27,17.48,0000 0000 0000 0000 000000
2017-10-28 10:04:13,0.01,0.68,0.00,17.79,21.54,24.85,14.11,45.95,1012.22,2051.07,3290.41,2933.00,3339.79,599.93,604.04,17.53,0000 0000 0000 0000 000000
2017-10-28 10:09:14,0.03,0.68,0.00,17.80,21.52,24.83,14.10,45.92,1012.24,2051.25,3290.02,2933.00,3339.28,599.88,603.95,17.58,0000 0000 0000 0000 000000
2017-10-28 10:14:15,0.03,0.69,0.00,17.79,21.49,24.83,14.09,46.02,1012.24,2051.65,3289.99,2933.00,3339.06,599.79,603.94,17.63,0000 0000 0000 0000 000000
2017-10-28 10:19:17,0.03,0.69,0.00,17.74,21.47,24.80,14.18,45.99,1012.24,2051.91,3289.78,2932.99,3339.01,599.96,604.01,17.68,0000 0000 0000 0000 000000
2017-10-28 10:24:18,0.01,0.69,0.00,17.77,21.45,24.77,14.07,45.84,1012.23,2051.97,3289.07,2932.99,3339.00,599.72,603.77,17.73,0000 0000 0000 0000 000000
2017-10-28 10:29:19,0.00,0.69,0.00,17.74,21.43,24.76,14.09,45.96,1012.23,2051.98,3288.99,2932.98,3338.99,599.89,603.99,17.78,0000 0000 0000 0000 000000
2017-10-28 10:34:20,0.01,0.69,0.00,17.76,21.42,24.74,14.03,45.96,1012.25,2051.98,3288.44,2932.97,3338.82,599.72,603.95,17.84,0000 0000 0000 0000 000000
2017-10-28 10:39:22,0.01,0.69,0.00,17.78,21.39,24.71,14.21,46.04,1012.22,2051.99,3288.02,2932.92,3338.52,600.01,604.17,17.89,0000 0000 0000 0000 000000
2017-10-28 10:44:23,0.00,0.69,0.00,17.73,21.38,24.72,14.16,46.09,1012.23,2052.00,3287.96,2932.86,3338.07,600.06,604.23,17.94,0000 0000 0000 0000 000000
2017-10-28 10:49:24,0.02,0.69,0.00,17.74,21.36,24.75,14.12,46.07,1012.22,2052.03,3287.40,2932.64,3338.01,600.02,604.16,17.99,0000 0000 0000 0000 000000
2017-10-28 10:54:25,0.01,0.69,0.00,17.72,21.34,24.70,14.18,46.10,1012.22,2052.03,3287.01,2932.29,3338.00,600.03,604.30,18.04,0000 0000 0000 0000 000000
2017-10-28 10:59:27,0.01,0.69,0.00,17.71,21.32,24.70,14.13,46.01,1012.23,2052.08,3286.94,2932.08,3337.98,599.56,603.86,18.09,0000 0000 0000 0000 000000
2017-10-28 11:04:28,0.04,0.69,0.00,17.70,21.31,24.68,14.10,45.93,1012.26,2052.22,3286.21,2932.02,3337.64,599.86,604.05,18.14,0000 0000 0000 0000 000000
2017-10-28 11:09:29,-0.00,0.70,0.00,17.72,21.29,24.64,14.18,46.09,1012.51,2052.28,3286.00,2932.00,3337.14,599.99,604.41,18.19,0000 0000 0000 0000 000000
2017-10-28 11:14:31,0.04,0.70,0.00,17.68,21.28,24.64,14.16,46.24,1012.70,2052.62,3285.96,2932.00,3337.01,600.05,604.54,18.24,0000 0000 0000 0000 000000
2017-10-28 11:19:32,0.03,0.70,0.00,17.72,21.27,24.61,14.14,46.05,1012.70,2052.84,3285.43,2932.00,3337.00,599.98,604.49,18.29,0000 0000 0000 0000 000000
2017-10-28 11:24:33,0.01,0.70,0.00,17.68,21.25,24.64,14.19,46.11,1012.70,2052.96,3285.03,2932.00,3336.98,600.27,604.89,18.34,0000 0000 0000 0000 000000
2017-10-28 11:29:34,0.00,0.70,0.00,17.68,21.24,24.58,14.10,46.03,1012.71,2052.97,3284.99,2931.99,3336.90,599.96,604.63,18.39,0000 0000 0000 0000 000000
2017-10-28 11:34:36,0.02,0.70,0.00,17.67,21.23,24.59,14.14,45.93,1012.71,2052.97,3284.33,2931.97,3336.15,599.96,604.71,18.44,0000 0000 0000 0000 000000
2017-10-28 11:39:37,0.01,0.70,0.00,17.68,21.22,24.53,14.19,45.88,1012.71,2052.98,3284.01,2931.85,3336.00,600.20,604.87,18.49,0000 0000 0000 0000 000000
2017-10-28 11:44:39,0.01,0.70,0.00,17.67,21.22,24.51,14.16,45.99,1012.71,2052.99,3283.93,2931.51,3336.00,599.89,604.48,18.54,0000 0000 0000 0000 000000
2017-10-28 11:49:40,0.02,0.70,0.00,17.70,21.20,24.50,14.21,46.03,1012.72,2052.99,3283.19,2931.11,3335.95,600.36,604.77,18.59,0000 0000 0000 0000 000000
2017-10-28 11:54:41,0.01,0.70,0.00,17.71,21.19,24.50,14.19,46.12,1012.72,2052.99,3283.00,2931.02,3335.54,600.13,604.52,18.64,0000 0000 0000 0000 000000
2017-10-28 11:59:42,0.01,0.70,0.00,17.66,21.19,24.46,14.09,45.92,1012.73,2052.99,3282.89,2931.01,3335.05,599.91,604.45,18.69,0000 0000 0000 0000 000000
2017-10-28 12:04:43,0.01,0.71,0.00,17.68,21.18,24.45,14.15,46.04,1012.72,2052.99,3282.16,2931.00,3335.00,600.06,604.82,18.74,0000 0000 0000 0000 000000
2017-10-28 12:09:45,0.00,0.71,0.00,17.67,21.17,24.51,14.10,45.99,1012.73,2052.99,3282.00,2931.00,3334.98,599.96,604.57,18.79,0000 0000 0000 0000 000000
2017-10-28 12:14:46,0.00,0.71,0.00,17.70,21.17,24.43,14.15,46.01,1012.74,2053.00,3281.80,2930.98,3334.79,599.93,604.52,18.84,0000 0000 0000 0000 000000
2017-10-28 12:19:48,0.02,0.71,0.00,17.67,21.16,24.44,14.14,46.09,1012.75,2053.00,3281.09,2930.97,3334.14,599.99,604.64,18.89,0000 0000 0000 0000 000000
2017-10-28 12:24:49,0.01,0.71,0.00,17.68,21.14,24.45,14.11,46.06,1012.72,2053.01,3280.98,2930.66,3334.02,600.16,604.74,18.94,0000 0000 0000 0000 000000
2017-10-28 12:29:50,0.02,0.71,0.00,17.65,21.14,24.43,14.12,46.02,1012.75,2053.03,3280.44,2930.12,3333.99,599.71,604.54,18.99,0000 0000 0000 0000 000000
2017-10-28 12:34:52,0.01,0.71,0.00,17.67,21.14,24.47,14.14,45.97,1012.79,2053.03,3280.02,2930.03,3333.87,600.18,604.79,19.04,0000 0000 0000 0000 000000
2017-10-28 12:39:53,0.01,0.71,0.00,17.65,21.12,24.45,14.13,45.97,1012.81,2053.02,3279.95,2930.00,3333.18,599.58,604.32,19.09,0000 0000 0000 0000 000000
2017-10-28 12:44:54,0.01,0.71,0.00,17.66,21.12,24.37,14.04,45.93,1012.97,2053.04,3279.24,2930.00,3333.01,599.97,604.79,19.14,0000 0000 0000 0000 000000
2017-10-28 12:49:56,0.00,0.71,0.00,17.65,21.12,24.39,14.16,46.02,1013.07,2053.02,3279.00,2929.98,3332.99,600.01,604.91,19.19,0000 0000 0000 0000 000000
2017-10-28 12:54:57,0.01,0.71,0.00,17.71,21.10,24.33,14.12,45.95,1012.97,2053.03,3278.90,2929.95,3332.84,600.01,604.52,19.24,0000 0000 0000 0000 000000